sat.trackr.live / text

‹ back to catalog

STARLINK-3460

NORAD 51755 · 2022-016AT

PAYLOAD ACTIVE UNKNOWN

§ Identity

Operator
Country
US
Launch date
2022-02-21
Launch site
AFETR
Launch vehicle
Mass (kg)
RCS (m²)

Purposes: comms

External: N2YO · Heavens-Above · Gunter

§ Orbital elements

Epoch: 2026-05-25T04:49:09.996960Z

Period
95.44 min
Inclination
53.2137°
Eccentricity
0.0001272
Mean motion
15.08835389 rev/d
Perigee alt
538.9 km
Apogee alt
540.6 km
Semi-major
6,917.9 km
B*
1.4073e-5
RAAN
325.6498°
Arg perigee
93.5650°
Mean anomaly
266.5488°
Rev number
23,525

§ Raw data

STARLINK-34601 51755U 22016AT  26145.20081015 -.00000064  00000+0  14073-4 0  99982 51755  53.2137 325.6498 0001272  93.5650 266.5488 15.08835389235259

JSON: /api/v1/satellites/51755 · /tle

For live sub-satellite position, see the globe view (requires WebGL).

§ Visibility from observer

Set your observer location to see the next 7 days of passes ≥ 10°. The values pass through the URL so the page stays shareable.

No JS? Fill the form by hand. The geolocation button needs JavaScript.